60,28/09/2015 12:06,1443441960,59.73271,-3.48759,3,2,28/09/2015 12:05,1443441912,12.501,3,12.4,0,0,59.7551,-3.5017,50,1
61,28/09/2015 13:05,1443445514,59.73271,-3.48759,10,2,28/09/2015 13:05,1443445526,12.458,3,12.4,0,0,59.7624,-3.5096,3,3
62,28/09/2015 14:05,1443449159,59.76368,-3.49193,6,4,28/09/2015 14:05,1443449107,12.415,3,12.4,0,0,59.7691,-3.5297,51,1
63,28/09/2015 15:05,1443452729,59.93696,-6.45882,173,4,28/09/2015 15:05,1443452706,12.415,3,12.4,0,0,59.7743,-3.5546,18,3
64,28/09/2015 16:05,1443456357,59.81083,-3.56744,2,4,28/09/2015 16:05,1443456306,12.415,3,12.4,0,0,59.7792,-3.5779,39,1
65,28/09/2015 17:05,1443459912,59.79855,-3.99422,785,2,28/09/2015 17:05,1443459942,12.415,3,12.4,0,0,59.7869,-3.5898,3,3
66,28/09/2015 18:05,1443463517,59.75983,-3.63408,6,3,28/09/2015 18:05,1443463542,12.372,3,12.4,0,0,59.7968,-3.5831,3,2
67,28/09/2015 19:05,1443467147,59.74967,-2.7771,64,3,28/09/2015 19:05,1443467113,12.329,3,12.4,0,0,59.8068,-3.5572,24,1
68,28/09/2015 20:05,1443470712,59.81274,-3.49627,11,3,28/09/2015 20:05,1443470742,12.329,3,12.4,0,0,59.8186,-3.5193,3,5
69,28/09/2015 21:05,1443474311,59.81462,-3.42509,3,4,28/09/2015 21:05,1443474312,12.329,3,12.4,0,0,59.8336,-3.4735,3,3
70,28/09/2015 22:05,1443477953,59.81462,-3.42509,4,3,28/09/2015 22:05,1443477942,12.329,3,12.4,0,0,59.85,-3.4218,43,2
71,28/09/2015 23:05,1443481543,59.89651,-3.36226,3,2,28/09/2015 23:05,1443481506,12.286,3,12.4,0,0,59.8649,-3.3714,27,1
72,29/09/2015 00:05,1443485111,59.90008,-3.21949,4,2,29/09/2015 00:05,1443485133,12.286,3,12.4,0,0,59.8762,-3.3308,3,1
73,29/09/2015 01:06,1443488812,59.86729,-3.28678,2,4,29/09/2015 01:05,1443488706,12.286,3,12.4,0,0,59.8858,-3.3051,100,1
74,29/09/2015 02:05,1443492320,59.93111,-3.22352,98,2,29/09/2015 02:05,1443492305,12.286,3,12.4,0,0,59.8956,-3.2976,3,4
75,29/09/2015 03:05,1443495912,59.94734,-3.29499,5,2,29/09/2015 03:05,1443495908,12.286,3,12.4,0,0,59.9047,-3.2994,3,4
76,29/09/2015 04:05,1443499559,59.90675,-2.93384,62,2,29/09/2015 04:05,1443499520,12.329,3,12.4,0,0,59.9131,-3.3031,54,2
77,29/09/2015 05:05,1443503111,59.89831,-3.29088,2,3,29/09/2015 05:05,1443503109,12.286,3,12.4,0,0,59.9207,-3.3005,3,2
78,29/09/2015 06:05,1443506710,59.94911,-3.22352,3,3,29/09/2015 06:05,1443506714,12.2,3,12.4,0,0,59.9322,-3.2859,3,2
79,29/09/2015 07:05,1443510313,59.98189,-3.15597,2,3,29/09/2015 07:05,1443510335,12.2,3,12.4,0,0,59.9433,-3.2555,3,3
80,29/09/2015 08:05,1443513931,59.95084,-3.15203,4,2,29/09/2015 08:05,1443513942,12.2,3,12.4,0,0,59.9565,-3.2117,18,1
81,29/09/2015 09:05,1443517510,60.00154,-3.08438,6,3,29/09/2015 09:05,1443517512,12.2,3,12.4,0,0,59.9693,-3.1529,3,5
82,29/09/2015 10:05,1443521148,59.98523,-3.01279,4,2,29/09/2015 10:05,1443521132,12.157,3,12.4,0,0,59.9761,-3.0757,37,2
83,29/09/2015 11:05,1443524716,59.95418,-3.00902,4,2,29/09/2015 11:05,1443524713,12.2,3,12.4,0,0,59.9766,-3.0026,3,3
84,29/09/2015 12:05,1443528311,59.98685,-2.94118,3,4,29/09/2015 12:05,1443528312,12.2,3,12.3,0,0,59.9754,-2.9488,3,3
85,29/09/2015 13:05,1443531912,59.98997,-2.79794,3,3,29/09/2015 13:05,1443531951,12.157,4,12.4,0,0,59.9773,-2.921,3,3
86,29/09/2015 14:05,1443535525,59.98685,-2.94118,2,4,29/09/2015 14:05,1443535515,12.243,4,12.4,0,0,59.9828,-2.9164,18,4
87,29/09/2015 15:05,1443539138,60.03588,-2.94487,17,8,29/09/2015 15:05,1443539110,12.157,4,12.3,0,0,59.9947,-2.9256,20,2
88,29/09/2015 16:05,1443542713,59.9604,-2.7229,11,3,29/09/2015 16:05,1443542714,12.071,4,12.4,0,0,60.01,-2.9427,3,1
89,29/09/2015 17:05,1443546315,60.00792,-2.79794,5,2,29/09/2015 17:05,1443546343,12.071,2,12.4,0,0,60.0291,-2.955,3,3
90,29/09/2015 18:05,1443549920,60.08646,-2.87677,5,2,29/09/2015 18:05,1443549912,12.114,2,12.4,0,0,60.0478,-2.9493,3,5
91,29/09/2015 19:05,1443553514,60.039,-2.80145,11,3,29/09/2015 19:05,1443553542,12.114,2,12.4,0,0,60.0666,-2.9265,3,5
92,29/09/2015 20:05,1443557114,60.08646,-2.87677,3,3,29/09/2015 20:05,1443557111,12.114,2,12.3,0,0,60.0826,-2.883,3,1
93,29/09/2015 21:05,1443560711,60.08951,-2.73315,4,3,29/09/2015 21:05,1443560712,12.114,3,12.4,0,0,60.0918,-2.8197,3,1
94,29/09/2015 22:05,1443564331,60.09098,-2.66133,5,2,29/09/2015 22:05,1443564306,12.114,3,12.4,0,0,60.0886,-2.7425,23,5
95,29/09/2015 23:05,1443567924,60.09098,-2.66133,3,4,29/09/2015 23:05,1443567915,12.071,3,12.3,0,0,60.0748,-2.6774,19,1
96,30/09/2015 00:05,1443571508,60.04339,-2.58626,4,2,30/09/2015 00:05,1443571544,12.028,3,12.3,0,0,60.0576,-2.6339,3,3
97,30/09/2015 01:05,1443575106,60.07449,-2.5895,6,2,30/09/2015 01:05,1443575108,12.028,2,12.4,0,0,60.0421,-2.6182,3,5
98,30/09/2015 02:07,1443578821,60.04477,-2.51451,6,3,30/09/2015 02:05,1443578744,12.028,2,12.4,0,0,60.0313,-2.6248,112,2
99,30/09/2015 03:05,1443582311,60.04196,-2.658,2,3,30/09/2015 03:05,1443582312,12.028,2,12.3,0,0,60.028,-2.6505,3,3
100,30/09/2015 04:05,1443585906,60.04339,-2.58626,4,3,30/09/2015 04:05,1443585944,12.028,2,12.4,0,0,60.0323,-2.6915,3,4
101,30/09/2015 05:05,1443589510,60.0405,-2.72973,6,2,30/09/2015 05:05,1443589512,12.028,3,12.4,0,0,60.0431,-2.7351,3,3
102,30/09/2015 06:05,1443593125,60.06534,-3.02034,25,3,30/09/2015 06:05,1443593110,12.028,3,12.3,0,0,60.0582,-2.7649,18,5
103,30/09/2015 07:05,1443596710,60.07159,-2.73315,3,2,30/09/2015 07:05,1443596744,12.028,3,12.3,0,0,60.0728,-2.7725,3,4
104,30/09/2015 08:05,1443600338,60.11911,-2.80848,5,2,30/09/2015 08:05,1443600302,12.028,3,12.4,0,0,60.0839,-2.7563,21,1
105,30/09/2015 09:05,1443603931,60.09098,-2.66133,3,3,30/09/2015 09:05,1443603910,12.028,3,12.3,0,0,60.0879,-2.7217,20,5
106,30/09/2015 10:05,1443607507,60.07449,-2.5895,12,3,30/09/2015 10:05,1443607539,12.028,3,12.4,0,0,60.0839,-2.6724,3,5
107,30/09/2015 11:05,1443611118,60.09379,-2.51767,2,3,30/09/2015 11:05,1443611110,12.028,3,12.4,0,0,60.0715,-2.6212,3,2
108,30/09/2015 12:05,1443614728,60.04339,-2.58626,2,4,30/09/2015 12:05,1443614710,12.028,3,12.3,0,0,60.0547,-2.5777,19,2
109,30/09/2015 13:05,1443618312,60.0123,-2.58302,18,5,30/09/2015 13:05,1443618344,12.028,2,12.4,0,0,60.0373,-2.5513,3,2
110,30/09/2015 14:05,1443621919,60.04612,-2.44276,11,2,30/09/2015 14:05,1443621943,12.028,2,12.4,0,0,60.0243,-2.5464,3,2
111,30/09/2015 15:06,1443625588,60.0123,-2.58302,4,3,30/09/2015 15:05,1443625510,12.028,2,12.3,0,0,60.0173,-2.5605,71,1
112,30/09/2015 16:05,1443629111,60.0123,-2.58302,3,2,30/09/2015 16:05,1443629136,12.028,2,12.4,0,0,60.0178,-2.5876,3,4
113,30/09/2015 17:05,1443632725,60.04477,-2.51451,6,4,30/09/2015 17:05,1443632743,12.028,3,12.4,0,0,60.0245,-2.6187,17,1
114,30/09/2015 18:05,1443636311,60.04339,-2.58626,3,3,30/09/2015 18:05,1443636305,12.028,3,12.3,0,0,60.0381,-2.6397,3,5
115,30/09/2015 19:06,1443639973,60.20592,-5.56694,185,3,30/09/2015 19:05,1443639943,12.028,3,12.3,0,0,60.0528,-2.6451,68,1
116,30/09/2015 20:05,1443643524,60.04477,-2.51451,2,2,30/09/2015 20:05,1443643509,12.028,3,12.3,0,0,60.0652,-2.6301,18,4
117,30/09/2015 21:05,1443647112,60.04339,-2.58626,4,2,30/09/2015 21:05,1443647111,12.028,3,12.3,0,0,60.0719,-2.5979,3,5
118,30/09/2015 22:05,1443650718,60.09379,-2.51767,13,2,30/09/2015 22:05,1443650754,12.028,3,12.3,0,0,60.0719,-2.5493,3,5
119,30/09/2015 23:05,1443654311,60.04612,-2.44276,16,2,30/09/2015 23:05,1443654308,11.985,3,12.4,0,0,60.0659,-2.5003,3,4
120,01/10/2015 00:05,1443657911,60.04742,-2.37099,3,3,01/10/2015 00:05,1443657912,11.985,3,12.3,0,0,60.0551,-2.4522,3,5
121,01/10/2015 01:05,1443661548,60.01634,-2.36803,5,3,01/10/2015 01:05,1443661518,11.985,2,12.4,0,0,60.0439,-2.4118,39,3
122,01/10/2015 02:05,1443665137,59.84004,-7.59464,306,2,01/10/2015 02:05,1443665143,12.028,2,12.4,0,0,60.0341,-2.3879,19,5
123,01/10/2015 03:06,1443668769,60.01634,-2.36803,4,2,01/10/2015 03:05,1443668711,12.028,2,12.3,0,0,60.0291,-2.3844,56,1
124,01/10/2015 04:05,1443672316,60.01634,-2.36803,3,2,01/10/2015 04:05,1443672343,12.028,2,12.3,0,0,60.0298,-2.4006,3,1
125,01/10/2015 05:05,1443675925,60.04742,-2.37099,3,3,01/10/2015 05:05,1443675912,12.028,3,12.3,0,0,60.0363,-2.4293,18,4
126,01/10/2015 06:05,1443679522,59.98054,-4.30524,123,2,01/10/2015 06:05,1443679543,12.028,3,12.3,0,0,60.0478,-2.4626,3,2
127,01/10/2015 07:05,1443683111,60.09379,-2.51767,6,3,01/10/2015 07:05,1443683145,12.028,3,12.3,0,0,60.0636,-2.4857,3,4
128,01/10/2015 08:05,1443686709,60.07879,-1.43748,323,2,01/10/2015 08:05,1443686712,12.028,3,12.3,0,0,60.0743,-2.494,3,5
129,01/10/2015 09:05,1443690312,60.09514,-2.44582,2,2,01/10/2015 09:05,1443690312,12.028,3,12.4,0,0,60.0852,-2.4837,3,3
130,01/10/2015 10:05,1443693924,60.09514,-2.44582,4,5,01/10/2015 10:05,1443693944,12.028,3,12.3,0,0,60.0899,-2.4575,3,3
131,01/10/2015 11:05,1443697511,60.04742,-2.37099,4,3,01/10/2015 11:05,1443697510,12.028,3,12.3,0,0,60.0876,-2.4209,3,3
132,01/10/2015 12:05,1443701108,60.04869,-2.29922,3,2,01/10/2015 12:05,1443701114,12.028,3,12.3,0,0,60.0789,-2.379,3,3
133,01/10/2015 13:05,1443704711,60.04742,-2.37099,4,3,01/10/2015 13:05,1443704711,12.028,3,12.3,0,0,60.0671,-2.3426,3,2
134,01/10/2015 14:06,1443708367,60.01883,-2.22466,9,3,01/10/2015 14:05,1443708309,12.028,3,12.3,0,0,60.0551,-2.3165,51,3
135,01/10/2015 15:05,1443711913,60.05111,-2.15566,4,2,01/10/2015 15:05,1443711910,12.028,3,12.3,0,0,60.0461,-2.3052,3,3
136,01/10/2015 16:05,1443715520,60.04869,-2.29922,3,2,01/10/2015 16:05,1443715535,12.028,3,12.3,0,0,60.0436,-2.3102,3,3
137,01/10/2015 17:05,1443719117,60.04742,-2.37099,3,3,01/10/2015 17:05,1443719102,11.985,3,12.3,0,0,60.0468,-2.3277,3,2
138,01/10/2015 18:05,1443722722,60.04869,-2.29922,2,331,01/10/2015 18:05,1443722735,11.942,3,12.3,0,0,60.0545,-2.3493,3,1
139,01/10/2015 19:05,1443726318,60.04992,-2.22745,4,3,01/10/2015 19:05,1443726308,11.899,3,12.3,0,0,60.0665,-2.3675,3,5
140,01/10/2015 20:05,1443729925,60.09645,-2.37397,2,2,01/10/2015 20:05,1443729912,11.899,3,12.3,0,0,60.0795,-2.3746,3,2
141,01/10/2015 21:05,1443733509,60.04869,-2.29922,3,2,01/10/2015 21:05,1443733512,11.899,3,12.3,0,0,60.0916,-2.3661,3,5
142,01/10/2015 22:05,1443737140,60.06662,-2.29922,5,4,01/10/2015 22:05,1443737137,11.856,3,12.3,0,0,60.0969,-2.3409,21,1
143,01/10/2015 23:05,1443740738,60.12883,-2.305,3,2,01/10/2015 23:05,1443740758,11.856,3,12.3,0,0,60.0961,-2.3031,21,3
144,02/10/2015 00:06,1443744404,60.09895,-2.23024,5,4,02/10/2015 00:05,1443744302,11.899,3,12.3,0,0,60.0862,-2.2583,88,1
145,02/10/2015 01:06,1443747984,60.04992,-2.22745,3,3,02/10/2015 01:05,1443747907,11.899,3,12.3,0,0,60.069,-2.215,66,3
146,02/10/2015 02:05,1443751537,60.07019,-2.08387,9,3,02/10/2015 02:05,1443751546,11.899,3,12.3,0,0,60.0493,-2.1798,17,5
147,02/10/2015 03:06,1443755170,60.10014,-2.15837,8,4,02/10/2015 03:05,1443755121,11.856,3,12.3,0,0,60.035,-2.1619,60,2
148,02/10/2015 04:05,1443758718,60.02117,-2.08126,4,2,02/10/2015 04:05,1443758744,11.856,3,12.3,0,0,60.0269,-2.1613,3,1
149,02/10/2015 05:05,1443762326,60.02002,-2.15296,2,3,02/10/2015 05:05,1443762312,11.856,3,12.3,0,0,60.0272,-2.174,18,5
150,02/10/2015 06:06,1443766008,60.05226,-2.08387,4,2,02/10/2015 06:05,1443765912,11.856,3,12.3,0,0,60.0337,-2.1931,100,3
151,02/10/2015 07:05,1443769550,60.06904,-2.15566,6,5,02/10/2015 07:05,1443769544,11.813,3,12.3,0,0,60.0451,-2.2121,35,1
152,02/10/2015 08:06,1443773190,60.05226,-2.08387,4,2,02/10/2015 08:05,1443773112,11.813,3,12.3,0,0,60.0593,-2.2224,79,3
153,02/10/2015 09:05,1443776726,60.10014,-2.15837,5,2,02/10/2015 09:05,1443776714,11.813,3,12.3,0,0,60.071,-2.2211,18,1
154,02/10/2015 10:05,1443780340,60.03707,-0.35899,123,3,02/10/2015 10:05,1443780314,11.77,3,12.3,0,0,60.078,-2.2058,34,2
155,02/10/2015 11:05,1443783910,60.05111,-2.15566,4,3,02/10/2015 11:05,1443783932,11.727,3,12.3,0,0,60.0777,-2.1826,3,1
156,02/10/2015 12:05,1443787509,60.07019,-2.08387,4,2,02/10/2015 12:05,1443787531,11.727,3,12.3,0,0,60.0712,-2.153,3,5
157,02/10/2015 13:05,1443791113,60.05226,-2.08387,4,2,02/10/2015 13:05,1443791111,11.727,3,12.3,0,0,60.0568,-2.1213,3,5
158,02/10/2015 14:05,1443794712,60.05111,-2.15566,3,3,02/10/2015 14:05,1443794740,11.77,3,12.3,0,0,60.0402,-2.0955,3,2
159,02/10/2015 15:05,1443798320,60.02117,-2.08126,11,2,02/10/2015 15:05,1443798312,11.727,3,12.3,0,0,60.0271,-2.0833,3,1
160,02/10/2015 16:05,1443801959,60.02228,-2.00955,3,4,02/10/2015 16:05,1443801903,11.727,3,12.3,0,0,60.0197,-2.0883,49,5
161,02/10/2015 17:05,1443805514,60.02228,-2.00955,2,3,02/10/2015 17:05,1443805513,11.727,3,12.3,0,0,60.0201,-2.1101,3,2
162,02/10/2015 18:05,1443809126,60.02117,-2.08126,5,3,02/10/2015 18:05,1443809112,11.684,3,12.3,0,0,60.028,-2.1425,18,5
163,02/10/2015 19:05,1443812747,60.19785,0.14432,151,2,02/10/2015 19:05,1443812741,11.684,3,12.3,0,0,60.0421,-2.1799,37,1
164,02/10/2015 20:05,1443816336,60.10014,-2.15837,3,3,02/10/2015 20:05,1443816312,11.684,3,12.3,0,0,60.0586,-2.2107,18,4
165,02/10/2015 21:05,1443819912,60.10014,-2.15837,4,2,02/10/2015 21:05,1443819913,11.684,3,12.3,0,0,60.076,-2.2287,3,2
166,02/10/2015 22:05,1443823558,60.10014,-2.15837,3,2,02/10/2015 22:05,1443823532,11.684,3,12.3,0,0,60.0904,-2.2323,47,4
167,02/10/2015 23:05,1443827127,60.09772,-2.30211,5,3,02/10/2015 23:05,1443827112,11.684,3,12.3,0,0,60.0992,-2.222,20,5
168,03/10/2015 00:05,1443830755,60.13007,-2.23304,10,2,03/10/2015 00:05,1443830742,11.684,3,12.3,0,0,60.0996,-2.2052,37,1
169,03/10/2015 01:06,1443834369,60.13126,-2.16108,3,2,03/10/2015 01:05,1443834312,11.727,3,12.3,0,0,60.0934,-2.1809,56,2
170,03/10/2015 02:05,1443837921,60.10129,-2.08649,2,3,03/10/2015 02:05,1443837912,11.727,3,12.3,0,0,60.0841,-2.157,3,1
171,03/10/2015 03:05,1443841514,60.07019,-2.08387,2,3,03/10/2015 03:05,1443841546,11.727,3,12.3,0,0,60.0741,-2.1394,3,5
172,03/10/2015 04:06,1443845193,60.05226,-2.08387,8,2,03/10/2015 04:05,1443845132,11.684,3,12.3,0,0,60.0682,-2.1359,86,1
173,03/10/2015 05:06,1443848792,60.05226,-2.08387,5,8,03/10/2015 05:05,1443848714,11.727,3,12.3,0,0,60.0687,-2.1459,74,3
174,03/10/2015 06:05,1443852342,60.10129,-2.08649,6,3,03/10/2015 06:05,1443852339,11.684,3,12.3,0,0,60.0752,-2.1636,35,2
175,03/10/2015 07:06,1443855963,60.06904,-2.15566,3,3,03/10/2015 07:05,1443855943,11.684,3,12.3,0,0,60.0876,-2.1852,50,3
176,03/10/2015 08:05,1443859515,60.16497,-2.95597,84,3,03/10/2015 08:05,1443859542,11.684,3,12.3,0,0,60.1047,-2.2044,3,3
177,03/10/2015 09:05,1443863148,60.13007,-2.23304,2,3,03/10/2015 09:05,1443863112,11.684,2,12.3,0,0,60.1247,-2.2135,36,4
178,03/10/2015 10:05,1443866755,60.0352,-0.78974,145,2,03/10/2015 10:05,1443866712,11.684,2,12.3,0,0,60.1432,-2.2095,40,3
179,03/10/2015 11:05,1443870325,60.14914,-2.16108,2,2,03/10/2015 11:05,1443870303,11.727,2,12.3,0,0,60.1573,-2.1951,17,2
180,03/10/2015 12:05,1443873941,60.17908,-2.23585,6,2,03/10/2015 12:05,1443873901,11.727,2,12.3,0,0,60.1648,-2.1693,21,4
181,03/10/2015 13:05,1443877507,60.13126,-2.16108,10,2,03/10/2015 13:05,1443877543,11.727,3,12.3,0,0,60.1672,-2.1427,3,5
182,03/10/2015 14:05,1443881120,60.18143,-2.09174,4,5,03/10/2015 14:05,1443881146,11.727,3,12.3,0,0,60.1662,-2.1187,3,2
183,03/10/2015 15:05,1443884711,60.18143,-2.09174,6,2,03/10/2015 15:05,1443884710,11.727,3,12.3,0,0,60.1638,-2.1026,3,3
184,03/10/2015 16:05,1443888311,60.1503,-2.08911,4,2,03/10/2015 16:05,1443888310,11.727,3,12.3,0,0,60.1621,-2.0977,3,5
185,03/10/2015 17:05,1443891932,60.18255,-2.01967,4,2,03/10/2015 17:05,1443891944,11.684,2,12.3,0,0,60.1588,-2.103,17,4
186,03/10/2015 18:05,1443895522,60.18143,-2.09174,4,2,03/10/2015 18:05,1443895501,11.684,2,12.3,0,0,60.1571,-2.1079,3,5
187,03/10/2015 19:05,1443899109,60.13242,-2.08911,8,2,03/10/2015 19:05,1443899143,11.684,2,12.3,0,0,60.1579,-2.1069,3,4
188,03/10/2015 20:05,1443902709,60.15141,-2.01713,3,4,03/10/2015 20:05,1443902711,11.684,2,12.3,0,0,60.1604,-2.0987,3,5
189,03/10/2015 21:05,1443906311,60.13242,-2.08911,4,3,03/10/2015 21:05,1443906311,11.684,3,12.3,0,0,60.1631,-2.077,3,2
190,03/10/2015 22:05,1443909920,60.2137,-2.02221,8,3,03/10/2015 22:05,1443909938,11.684,3,12.3,0,0,60.1647,-2.0406,3,3
191,03/10/2015 23:05,1443913544,60.15141,-2.01713,4,2,03/10/2015 23:05,1443913511,11.727,3,12.3,0,0,60.1552,-2.0133,37,5
192,04/10/2015 00:06,1443917168,60.10348,-1.9427,5,2,04/10/2015 00:05,1443917143,11.684,3,12.3,0,0,60.1392,-1.9956,62,5
192,04/10/2015 00:05,1443917143,60.15249,-1.94515,2,3,04/10/2015 00:05,1443917143,11.684,3,12.3,0,0,60.1392,-1.9956,24,5
193,04/10/2015 01:06,1443920761,60.10348,-1.9427,4,2,04/10/2015 01:05,1443920743,11.684,2,12.3,0,0,60.1296,-1.9584,50,1
194,04/10/2015 02:05,1443924311,60.10348,-1.9427,9,3,04/10/2015 02:05,1443924310,11.684,2,12.3,0,0,60.1091,-1.9296,3,4
195,04/10/2015 03:05,1443927948,60.05548,-1.86846,8,2,04/10/2015 03:05,1443927943,11.684,2,12.3,0,0,60.0865,-1.9213,36,4
196,04/10/2015 04:05,1443931511,60.05445,-1.94027,4,2,04/10/2015 04:05,1443931526,11.684,2,12.3,0,0,60.0648,-1.9307,3,5
197,04/10/2015 05:05,1443935155,60.05548,-1.86846,3,2,04/10/2015 05:05,1443935126,11.684,3,12.3,0,0,60.045,-1.9401,51,5
198,04/10/2015 06:05,1443938721,60.05445,-1.94027,4,3,04/10/2015 06:05,1443938743,11.684,3,12.3,0,0,60.0335,-1.9587,3,4
199,04/10/2015 07:05,1443942319,60.05445,-1.94027,5,2,04/10/2015 07:05,1443942311,11.641,3,12.3,0,0,60.029,-1.9891,3,4
200,04/10/2015 08:05,1443945910,60.1998,-5.71059,229,3,04/10/2015 08:05,1443945920,11.641,3,12.3,0,0,60.0307,-2.0295,3,2
201,04/10/2015 09:05,1443949510,60.02228,-2.00955,2,2,04/10/2015 09:05,1443949510,11.641,3,12.3,0,0,60.0385,-2.0692,3,1
202,04/10/2015 10:06,1443953193,60.05111,-2.15566,388,2,04/10/2015 10:05,1443953143,11.641,3,12.3,0,0,60.0497,-2.103,87,3
203,04/10/2015 11:05,1443956711,60.05226,-2.08387,2,3,04/10/2015 11:05,1443956706,11.684,3,12.3,0,0,60.0607,-2.1244,3,3
204,04/10/2015 12:06,1443960391,60.05744,-1.72482,84,2,04/10/2015 12:05,1443960304,11.684,3,12.3,0,0,60.0687,-2.1319,81,5
205,04/10/2015 13:07,1443964040,60.10014,-2.15837,2,2,04/10/2015 13:05,1443963943,11.684,3,12.3,0,0,60.0707,-2.1332,125,3
206,04/10/2015 14:05,1443967533,60.05226,-2.08387,13,2,04/10/2015 14:05,1443967543,11.727,3,12.3,0,0,60.0668,-2.128,18,2
207,04/10/2015 15:05,1443971118,60.02117,-2.08126,4,2,04/10/2015 15:05,1443971144,11.77,3,12.3,0,0,60.0596,-2.1154,3,4
208,04/10/2015 16:05,1443974710,60.05226,-2.08387,6,2,04/10/2015 16:05,1443974744,11.727,3,12.3,0,0,60.0523,-2.1041,3,3
209,04/10/2015 17:05,1443978308,60.05226,-2.08387,3,2,04/10/2015 17:05,1443978312,11.684,3,12.3,0,0,60.0474,-2.1019,3,4
210,04/10/2015 18:05,1443981920,60.07019,-2.08387,6,1,04/10/2015 18:05,1443981903,11.684,3,12.3,0,0,60.0452,-2.1107,3,1
211,04/10/2015 19:05,1443985531,60.02117,-2.08126,5,2,04/10/2015 19:05,1443985544,11.684,3,12.3,0,0,60.0459,-2.1261,23,4
212,04/10/2015 20:05,1443989112,60.05111,-2.15566,2,2,04/10/2015 20:05,1443989110,11.684,3,12.3,0,0,60.0512,-2.1479,3,3
213,04/10/2015 21:05,1443992711,60.22579,0.93919,201,2,04/10/2015 21:05,1443992713,11.641,3,12.3,0,0,60.0614,-2.1729,3,3
214,04/10/2015 22:05,1443996312,60.10129,-2.08649,2,2,04/10/2015 22:05,1443996344,11.641,3,12.3,0,0,60.0747,-2.195,3,5
215,04/10/2015 23:07,1444000028,60.13242,-2.08911,12,2,04/10/2015 23:05,1443999911,11.641,3,12.3,0,0,60.088,-2.211,120,5
216,05/10/2015 00:07,1444003638,60.10014,-2.15837,2,3,05/10/2015 00:05,1444003507,11.641,3,12.3,0,0,60.1005,-2.2175,131,2
217,05/10/2015 01:05,1444007153,60.10014,-2.15837,8,2,05/10/2015 01:05,1444007144,11.641,2,12.3,0,0,60.1097,-2.2146,36,1
218,05/10/2015 02:05,1444010709,60.1503,-2.08911,4,3,05/10/2015 02:05,1444010709,11.641,2,12.3,0,0,60.1138,-2.2049,3,5
219,05/10/2015 03:05,1444014320,60.1503,-2.08911,8,2,05/10/2015 03:05,1444014313,11.641,2,12.3,0,0,60.113,-2.191,3,4
220,05/10/2015 04:05,1444017922,60.10129,-2.08649,3,2,05/10/2015 04:05,1444017944,11.641,2,12.3,0,0,60.1077,-2.175,3,4
221,05/10/2015 05:05,1444021509,60.10014,-2.15837,3,2,05/10/2015 05:05,1444021510,11.641,3,12.3,0,0,60.1003,-2.1609,3,5
222,05/10/2015 06:05,1444025110,60.10014,-2.15837,3,2,05/10/2015 06:05,1444025125,11.641,3,12.3,0,0,60.0954,-2.1554,3,1
223,05/10/2015 07:05,1444028706,60.10129,-2.08649,10,3,05/10/2015 07:05,1444028744,11.641,3,12.3,0,0,60.0934,-2.1592,3,4
224,05/10/2015 08:07,1444032456,60.10014,-2.15837,4,2,05/10/2015 08:05,1444032312,11.684,3,12.3,0,0,60.094,-2.1743,149,5
225,05/10/2015 09:05,1444035915,60.10014,-2.15837,3,3,05/10/2015 09:05,1444035910,11.684,2,12.3,0,0,60.0989,-2.1958,3,4
226,05/10/2015 10:05,1444039531,60.13126,-2.16108,15,4,05/10/2015 10:05,1444039534,11.684,2,12.3,0,0,60.1064,-2.216,18,1
227,05/10/2015 11:05,1444043118,60.13007,-2.23304,4,3,05/10/2015 11:05,1444043112,11.727,2,12.3,0,0,60.1161,-2.2313,3,4
228,05/10/2015 12:06,1444046811,60.20712,-3.75645,167,3,05/10/2015 12:05,1444046744,11.856,2,12.3,0,0,60.1253,-2.234,104,2
229,05/10/2015 13:05,1444050329,60.06785,-2.22745,5,6,05/10/2015 13:05,1444050344,11.856,3,12.3,0,0,60.1328,-2.2316,22,5
230,05/10/2015 14:06,1444053988,60.14278,-2.52083,12,3,05/10/2015 14:05,1444053910,11.856,3,12.3,0,0,60.1371,-2.2215,65,1
231,05/10/2015 15:05,1444057519,60.09895,-2.23024,8,3,05/10/2015 15:05,1444057511,11.899,3,12.3,0,0,60.1361,-2.2068,3,5
232,05/10/2015 16:06,1444061201,60.10129,-2.08649,3,2,05/10/2015 16:05,1444061112,11.899,3,12.3,0,0,60.1317,-2.1956,84,1
233,05/10/2015 17:05,1444064710,60.13007,-2.23304,7,3,05/10/2015 17:05,1444064702,11.899,3,12.3,0,0,60.1251,-2.1874,3,1
234,05/10/2015 18:05,1444068313,60.13007,-2.23304,2,2,05/10/2015 18:05,1444068329,11.899,3,12.3,0,0,60.1184,-2.1856,3,5
235,05/10/2015 19:05,1444071908,60.15813,-1.51312,785,2,05/10/2015 19:05,1444071940,11.899,3,12.3,0,0,60.1149,-2.1905,3,1
236,05/10/2015 20:05,1444075536,60.10014,-2.15837,3,3,05/10/2015 20:05,1444075515,11.899,3,12.3,0,0,60.1153,-2.2025,21,4
237,05/10/2015 21:05,1444079149,60.15729,-1.58514,84,1,05/10/2015 21:05,1444079104,11.899,3,12.3,0,0,60.1204,-2.2195,41,1
238,05/10/2015 22:05,1444082728,60.17908,-2.23585,4,2,05/10/2015 22:05,1444082714,11.899,3,12.3,0,0,60.1306,-2.236,21,5
239,05/10/2015 23:05,1444086339,60.19408,-1.01015,94,2,05/10/2015 23:05,1444086311,11.942,3,12.3,0,0,60.1434,-2.2506,33,4
240,06/10/2015 00:05,1444089943,60.17908,-2.23585,7,3,06/10/2015 00:05,1444089912,11.942,3,12.3,0,0,60.1587,-2.2614,38,1
241,06/10/2015 01:08,1444093680,60.17908,-2.23585,4,2,06/10/2015 01:05,1444093508,11.942,2,12.3,0,0,60.1744,-2.2662,169,4
242,06/10/2015 02:05,1444097155,60.18027,-2.1638,2,2,06/10/2015 02:05,1444097158,11.942,2,12.3,0,0,60.1891,-2.2642,50,5
243,06/10/2015 03:05,1444100735,60.20899,-2.31081,4,2,06/10/2015 03:05,1444100728,11.942,2,12.3,0,0,60.1989,-2.2579,20,1
244,06/10/2015 04:05,1444104351,60.25922,-2.24149,17,3,06/10/2015 04:05,1444104311,11.899,2,12.3,0,0,60.2053,-2.2451,40,2
245,06/10/2015 05:05,1444107936,60.18027,-2.1638,13,4,06/10/2015 05:05,1444107958,11.899,4,12.3,0,0,0,0,19,2
246,06/10/2015 06:05,1444111510,60.22926,-2.16652,3,3,06/10/2015 06:05,1444111543,11.899,4,12.3,0,0,60.2098,-2.2258,3,5
247,06/10/2015 07:05,1444115111,60.21142,-2.16652,3,3,06/10/2015 07:05,1444115102,11.856,4,12.3,0,0,60.212,-2.2213,3,5
248,06/10/2015 08:06,1444118803,60.55346,-7.02542,279,3,06/10/2015 08:05,1444118736,11.856,4,12.3,0,0,60.215,-2.2252,81,5
249,06/10/2015 09:05,1444122318,60.22807,-2.23867,3,2,06/10/2015 09:05,1444122303,11.899,2,12.3,0,0,60.2216,-2.2323,3,5
250,06/10/2015 10:05,1444125909,60.41724,-4.72744,177,3,06/10/2015 10:05,1444125906,11.856,2,12.3,0,0,60.2312,-2.2427,3,4
251,06/10/2015 11:05,1444129523,60.26042,-2.16926,2,2,06/10/2015 11:05,1444129512,11.856,2,12.3,0,0,60.2436,-2.2565,3,1
252,06/10/2015 12:05,1444133111,60.31288,-3.47699,96,2,06/10/2015 12:05,1444133112,11.856,2,12.3,0,0,60.258,-2.2727,3,4
253,06/10/2015 13:06,1444136764,60.30939,-2.172,6,4,06/10/2015 13:05,1444136706,11.899,3,12.3,0,0,60.2715,-2.284,55,2
254,06/10/2015 14:05,1444140331,60.34212,-3.55373,128,3,06/10/2015 14:05,1444140330,11.985,3,12.3,0,0,60.2838,-2.2884,23,5
255,06/10/2015 15:05,1444143929,60.33937,-2.24716,6,3,06/10/2015 15:05,1444143957,12.028,3,12.3,0,0,60.2948,-2.2858,18,4
256,06/10/2015 16:05,1444147541,60.30695,-2.31664,15,3,06/10/2015 16:05,1444147508,12.028,3,12.3,0,0,60.3033,-2.2826,25,3